Location: Le Moustier
(44.1000°N, 6.5167°E)
Time: 14:11:45
(UTC+00:00)

UNK - Pass Details

Date: 13 December 2025
Orbit: 653 x 673 km, 98.4° (Epoch: 19 January)

Event Time Altitude Azimuth Distance (km) Brightness Sun altitude
Rises 16:53:45 0° 13° (NNE) 3,020 6.7 -10.1°
Reaches altitude 10° 16:56:00 10° 13° (NNE) 2,099 5.9 -10.4°
Maximum altitude 17:00:35 88° 289° (WNW) 670 3.7 -11.2°
Drops below altitude 10° 17:05:07 10° 196° (SSW) 2,070 6.8 -12.0°
Sets 17:07:19 0° 196° (SSW) 2,974 7.6 -12.3°
